Tracking 17143 objects as of 25-May-2015
HD Live streaming from Space Station

UNISAT 3

Track UNISAT 3 now!
10-day predictions
UNISAT 3 is classified as:


NORAD ID: 28373
Int'l Code: 2004-025H
Perigee: 699.8 km
Apogee: 798.0 km
Inclination: 98.3 °
Period: 99.6 minutes
Semi major axis: 7119 km
RCS: 0.116 m2 (medium)
Launch date: June 29, 2004
Source: Italy (IT)

Unisat 3 is an Italian, scientific microsatellite (12 kg) designed to test solar cells in the space environment.
Your satellite tracking list
Your tracking list is empty





NASA's NSSDC Master Catalog

Two Line Element Set (TLE):
1 28373U 04025H   15144.47110663  .00000328  00000-0  10378-3 0  9992
2 28373 098.2500 092.8629 0069010 343.7493 129.7504 14.45084364574894

Source of the keplerian elements: AFSPC

N2YO: 380